Weather History for Kiana, AK

Change the Weather History Date:

Tuesday, March 13, 2012

  Actual Average (PASK) Record (PASK)
Temperature  
Mean Temperature -4 °F -  
Max Temperature 1 °F 5 °F 33 °F (2005)
Min Temperature -18 °F -4 °F -36 °F (1999)
Degree Days  
Heating Degree Days 69    
Moisture  
Dew Point -11 °F    
Average Humidity 64    
Maximum Humidity 83    
Minimum Humidity 46    
Precipitation  
Precipitation 0.00 in - - ()
Sea Level Pressure  
Sea Level Pressure 29.66 in    
Wind  
Wind Speed 4 mph (NE)    
Max Wind Speed 16 mph    
Max Gust Speed 21 mph    
Visibility 10 miles    
Events      
Averages and records for this station are not official NWS values.
T = Trace of Precipitation, MM = Missing Value Source: NWS Daily Summary

Daily Weather History Graph

Daily Weather History Graph

Search for Another Location

Airport:

Trip Planner

Search our weather history database for the weather conditions in past years. The results will help you decide how hot, cold, wet, or windy it might be!

Date:

Astronomy

Mar. 13, 2012 Rise Set
Actual Time 9:06 AM AKDT 8:37 PM AKDT
Civil Twilight 8:13 AM AKDT 9:30 PM AKDT
Nautical Twilight 7:10 AM AKDT 10:34 PM AKDT
Astronomical Twilight 5:58 AM AKDT 11:46 PM AKDT
Moon 5:56 AM AKDT (3/13) 8:52 AM AKDT (3/13)
Length of Visible Light 13h 16m
Length of Day
11h 30m
Waning Gibbous, 64% of the Moon is Illuminated
Mar 13
Waning Gibbous
Mar 14
Last Quarter
Mar 22
New
Mar 30
First Quarter
Apr 6
Full

Hourly Weather History & Observations

Time (AKDT) Temp. Windchill Dew Point Humidity Pressure Visibility Wind Dir Wind Speed Gust Speed Precip Events Conditions
12:01 AM -14.1 °F - -20.0 °F 75% 29.83 in 10.0 mi Calm Calm - N/A   Clear
1:01 AM -14.1 °F - -20.0 °F 75% 29.81 in 10.0 mi Calm Calm - N/A   Clear
2:01 AM -16.1 °F -26.2 °F -20.0 °F 82% 29.79 in 10.0 mi SSE 3.5 mph - N/A   Clear
3:01 AM -11.0 °F -20.4 °F -15.0 °F 83% 29.78 in 10.0 mi West 3.5 mph - N/A   Clear
4:01 AM -8.0 °F -16.9 °F -14.1 °F 75% 29.76 in 10.0 mi West 3.5 mph - N/A   Clear
5:01 AM -18.0 °F -28.5 °F -24.0 °F 74% 29.75 in 10.0 mi SW 3.5 mph - N/A   Clear
6:01 AM -14.1 °F - -18.0 °F 82% 29.73 in 10.0 mi Calm Calm - N/A   Clear
7:01 AM -17.0 °F - -24.0 °F 70% 29.72 in 10.0 mi Calm Calm - N/A   Clear
8:01 AM -4.0 °F -16.3 °F -8.0 °F 83% 29.69 in 10.0 mi NE 5.8 mph - N/A   Clear
9:01 AM -2.0 °F - -9.0 °F 72% 29.68 in 10.0 mi Calm Calm - N/A   Clear
10:01 AM -0.0 °F -7.9 °F -9.0 °F 66% 29.66 in 10.0 mi East 3.5 mph - N/A   Clear
11:01 AM 1.9 °F -9.2 °F -9.0 °F 60% 29.64 in 10.0 mi ENE 5.8 mph - N/A   Clear
12:01 PM 7.0 °F 0.1 °F -7.1 °F 53% 29.63 in 10.0 mi ENE 3.5 mph - N/A   Clear
1:01 PM 10.0 °F - -7.1 °F 46% 29.61 in 10.0 mi Calm Calm - N/A   Clear
2:01 PM 10.0 °F -4.5 °F -5.1 °F 51% 29.60 in 10.0 mi East 11.5 mph - N/A   Clear
3:01 PM 9.0 °F -8.5 °F -5.1 °F 53% 29.59 in 10.0 mi NE 16.1 mph - N/A   Clear
4:01 PM 10.0 °F -2.9 °F -5.1 °F 51% 29.57 in 10.0 mi East 9.2 mph 17.3 mph N/A   Clear
5:01 PM 9.0 °F -7.3 °F -5.1 °F 53% 29.57 in 10.0 mi NE 13.8 mph 20.7 mph N/A   Clear
6:01 PM 9.0 °F -0.9 °F -6.0 °F 51% 29.56 in 10.0 mi East 5.8 mph - N/A   Clear
7:01 PM 5.0 °F -6.9 °F -6.0 °F 61% 29.56 in 10.0 mi NE 6.9 mph - N/A   Clear
8:01 PM 6.1 °F -9.5 °F -8.0 °F 53% 29.56 in 10.0 mi NE 11.5 mph - N/A   Clear
9:01 PM 1.9 °F -12.9 °F -9.0 °F 60% 29.57 in 10.0 mi North 9.2 mph - N/A   Clear
10:01 PM 1.9 °F -13.8 °F -9.9 °F 58% 29.56 in 10.0 mi North 10.4 mph - N/A   Clear
11:01 PM 1.0 °F -15.8 °F -11.0 °F 57% 29.57 in 10.0 mi North 11.5 mph - N/A   Clear